This demonstration page uses our WeatherBlox Daily Observations layout. Learn more.

Left ArrowRight Arrow

41.55636, -103.73856

Hourly Observations for August 18, 2021

Temp ( °F °C ) Dew Point ( °F °C ) Humidity (%) Winds ( mph kmh ) Pressure ( in mb ) Visibility ( mi km ) Precip ( " mm )
12:58 am 00:58 Clear 76 24.2 44 6.7 33 33 S 28 44 29.64 1004 10 16 0.00 0.00
1:58 am 01:58 Partly Cloudy 73 22.7 48 8.8 41 41 S 28 44 29.63 1003 10 16 0.00 0.00
2:58 am 02:58 Clear 72 22.4 50 9.9 45 45 S 26 43 29.63 1004 10 16 0.00 0.00
3:58 am 03:58 Clear 70 21.2 49 9.7 48 48 S 25 41 29.64 1004 10 16 0.00 0.00
4:58 am 04:58 Mostly Clear 64 17.9 50 10 60 60 N 5 7 29.70 1006 10 16 0.00 0.00
5:58 am 05:58 Mostly Clear 65 18.6 51 10.3 59 59 W 9 15 29.74 1007 10 16 0.00 0.00
6:58 am 06:58 Mostly Sunny 65 18.6 51 10.8 61 61 SSW 12 19 29.73 1007 10 16 0.00 0.00
7:58 am 07:58 Sunny 69 20.5 51 10.7 54 54 SSW 10 17 29.73 1007 10 16 0.00 0.00
8:58 am 08:58 Sunny 74 23.2 52 11 46 46 SSW 13 20 29.74 1007 10 16 0.00 0.00
9:58 am 09:58 Sunny 80 26.4 50 9.9 35 35 SSW 7 11 29.75 1008 10 16 0.00 0.00
10:58 am 10:58 Sunny 84 28.8 46 7.9 27 27 Calm 29.76 1008 10 16 0.00 0.00
11:58 am 11:58 Sunny 87 30.5 49 9.3 27 27 SW 7 11 29.74 1007 10 16 0.00 0.00
12:58 pm 12:58 Sunny 91 33 42 5.5 18 18 WSW 9 15 29.73 1007 10 16 0.00 0.00
1:58 pm 13:58 Sunny 93 34.1 40 4.4 15 15 SSW 13 20 29.71 1006 10 16 0.00 0.00
2:58 pm 14:58 Sunny 94 34.4 37 3 14 14 S 12 19 29.71 1006 10 16 0.00 0.00
3:58 pm 15:58 Sunny 94 34.7 41 5.2 16 16 SE 17 28 29.69 1006 10 16 0.00 0.00
4:58 pm 16:58 Mostly Sunny 92 33.5 42 5.5 17 17 SE 17 28 29.71 1006 10 16 0.00 0.00
5:58 pm 17:58 Sunny 89 31.9 48 8.7 24 24 SE 22 35 29.69 1006 10 16 0.00 0.00
6:58 pm 18:58 Sunny 86 29.9 49 9.4 28 28 SSE 26 43 29.71 1006 10 16 0.00 0.00
7:58 pm 19:58 Mostly Cloudy 83 28.4 51 10.3 32 32 SSE 15 24 29.76 1008 10 16 0.00 0.00
8:58 pm 20:58 Clear 77 25 52 11.2 42 42 E 6 9 29.79 1009 10 16 0.00 0.00
9:58 pm 21:58 Mostly Cloudy 78 25.3 55 12.9 46 46 SE 10 17 29.81 1009 10 16 0.00 0.00
10:58 pm 22:58 Mostly Cloudy 76 24.2 56 13.3 51 51 Calm 29.82 1010 10 16 0.00 0.00
11:58 pm 23:58 Cloudy 74 23.5 56 13.1 52 52 SE 8 13 29.81 1010 10 16 0.00 0.00

Powered by AerisWeather